Lapse_Rate
8.9 8.9 5.9 5.7 4.0 3.4 2.9 2.9 1.8 1.8 2.6 3.4 4.3 4.8 4.6 4.7 4.9 4.3 3.0 3.4 3.0 3.3 4.8 4.7 4.6 5.8 5.7 5.0 3.5 3.8 5.4 7.8
9.0 8.9 6.7 6.8 4.7 4.3 3.4 3.2 2.5 3.0 3.7 3.4 4.2 4.9 5.1 5.7 4.9 3.8 3.4 3.2 3.1 3.7 5.4 5.0 5.1 5.5 4.1 3.9 4.8 4.2 4.1 7.8
8.8 8.9 7.6 5.9 5.2 4.2 4.2 4.0 3.7 3.7 4.0 3.6 3.7 4.9 7.0 6.4 6.4 5.2 4.5 3.7 3.5 3.7 3.3 3.2 3.6 4.3 3.9 4.5 7.2 6.9 6.0 7.0
8.6 8.7 8.5 7.3 5.5 4.4 4.5 4.4 4.3 3.7 3.2 5.6 6.7 9.6 9.7 9.0 6.0 7.3 5.1 4.1 4.0 3.7 3.5 3.5 3.4 4.0 4.5 4.2 6.3 7.7 7.1 6.4
8.8 8.8 8.8 7.6 5.6 4.9 4.9 4.4 4.6 4.1 3.8 5.3 5.5 8.2 8.7 6.7 7.3 6.2 4.9 4.4 4.0 3.9 3.3 3.2 3.8 4.4 4.6 5.5 6.4 6.6 6.7 7.0
8.7 8.8 8.8 8.2 5.5 5.2 5.0 5.3 4.9 4.3 4.1 4.5 6.4 7.6 8.7 9.7 9.7 8.4 7.8 5.7 4.5 4.9 5.2 6.1 6.0 5.1 4.8 4.6 5.2 5.2 6.5 7.1
8.7 8.9 8.6 8.9 6.2 5.5 5.6 5.9 6.2 5.0 5.0 5.3 5.4 5.6 7.0 9.2 9.4 9.3 9.3 8.7 7.1 5.8 5.1 4.8 4.6 4.6 4.5 4.8 4.9 4.8 5.9 6.7
8.7 8.7 8.8 8.8 8.0 6.8 6.4 6.2 7.0 6.3 5.9 5.9 5.5 5.7 7.9 8.9 9.4 9.5 9.2 9.5 9.0 7.3 4.9 5.0 4.8 4.7 4.8 5.0 5.1 4.9 5.1 5.4
8.6 8.7 8.7 8.7 7.6 7.3 6.6 6.1 7.4 6.4 5.9 5.9 7.1 7.7 9.5 9.7 9.7 9.7 9.7 9.7 9.4 6.5 5.3 4.7 4.9 5.1 5.1 5.2 5.9 5.6 5.6 4.9
8.4 8.6 8.6 8.5 8.1 6.3 5.4 5.7 6.6 5.7 5.2 5.6 6.7 7.8 8.5 9.0 8.9 9.6 9.8 9.6 9.1 6.9 5.1 5.2 5.5 6.0 5.9 6.2 6.4 5.7 5.9 5.2
8.5 8.6 8.6 8.5 7.4 7.1 5.9 5.9 6.1 5.8 5.5 5.5 6.0 7.0 8.2 7.7 6.7 9.2 9.4 9.2 8.7 6.6 6.1 6.2 5.9 6.4 6.8 7.7 7.1 6.3 6.4 5.3
8.5 8.6 8.5 8.3 8.1 8.6 7.6 6.5 6.1 6.0 5.7 5.6 5.9 5.4 5.6 6.2 5.3 6.8 9.4 9.0 9.2 7.7 6.0 5.6 5.7 6.2 7.3 8.1 7.8 7.9 8.1 6.3
8.5 8.7 8.6 8.5 8.4 7.6 7.7 6.2 5.8 5.8 5.7 5.4 5.8 5.9 5.7 8.2 8.5 6.4 9.4 9.3 9.0 8.3 6.0 5.2 5.9 6.8 7.7 8.3 7.7 7.7 8.0 7.8
8.5 6.8 4.5 5.4 5.6 5.7 6.4 6.6 7.4 6.9 6.4 6.7 8.4 7.0 6.1 8.3 7.9 6.2 8.9 9.3 8.7 7.4 6.7 5.9 6.7 7.3 8.5 8.4 8.4 8.3 7.6 6.5
8.4 5.0 2.7 3.1 4.2 5.0 4.8 6.1 6.4 5.6 6.6 8.9 8.4 7.8 7.5 7.5 5.9 6.7 9.2 9.2 8.8 9.0 7.1 7.2 7.5 8.6 8.7 8.4 8.4 8.0 7.5 6.7
8.2 5.3 3.2 3.1 2.7 3.3 4.4 5.4 5.4 5.4 7.3 8.4 8.8 9.2 9.2 8.7 6.4 8.4 9.3 8.6 9.2 9.3 8.8 8.1 8.8 8.3 8.9 8.0 7.5 7.7 6.8 5.8
8.3 8.2 5.3 3.9 4.0 4.6 5.0 5.7 5.8 7.8 8.0 8.0 9.1 9.2 9.1 7.7 8.3 9.3 9.3 9.3 9.4 9.3 9.1 9.0 8.6 8.9 8.4 6.8 6.8 7.7 6.5 7.9
8.3 8.3 5.5 5.4 4.7 5.3 6.7 7.0 7.7 8.4 8.7 9.1 9.1 8.2 6.9 8.2 9.3 9.5 9.3 9.1 9.3 8.7 8.9 9.1 9.0 9.1 7.8 6.3 6.2 7.5 8.5 8.5
8.3 6.0 4.1 5.2 5.6 5.6 6.0 7.4 8.5 8.9 9.1 9.2 9.0 6.8 8.3 8.8 9.2 9.5 9.2 9.1 9.0 8.9 9.1 9.1 9.1 9.4 7.7 6.6 5.9 8.3 8.5 8.8
Wind_Speed
8 6 4 4 4 4 5 5 7 7 5 6 4 5 7 8 8 9 11 10 11 11 9 9 11 8 8 9 12 11 11 12
9 6 4 3 4 5 6 6 7 6 6 7 5 6 6 6 8 11 11 12 12 11 8 9 10 9 10 11 11 13 9 11
10 8 5 4 5 5 6 6 7 6 6 6 5 7 5 6 7 9 10 13 12 12 10 9 10 9 11 11 12 10 9 8
12 9 5 4 5 5 5 6 6 6 8 5 6 5 5 4 7 6 10 12 13 13 12 9 10 10 9 11 12 13 9 10
11 9 6 4 4 4 4 5 6 6 7 6 8 7 7 6 7 7 9 12 14 13 14 13 10 9 11 11 10 11 10 11
13 9 7 5 4 4 4 4 5 6 6 7 7 8 7 6 7 10 10 9 12 13 14 15 12 9 11 13 13 12 10 10
11 8 7 5 4 4 3 4 5 6 6 6 7 8 9 8 8 8 8 8 8 12 15 14 13 11 11 11 13 15 14 12
13 10 7 4 3 3 3 5 5 6 6 7 7 8 9 9 9 9 11 9 8 10 13 13 12 12 13 12 14 15 14 13
12 9 6 4 3 4 4 5 5 6 7 8 8 9 7 7 8 9 8 9 10 12 12 14 14 15 13 13 11 12 12 11
12 9 6 4 2 3 4 6 7 8 8 8 8 8 9 10 11 10 9 11 11 13 13 14 15 15 14 14 10 14 13 12
12 9 7 4 2 3 5 6 8 8 9 9 9 9 10 10 10 12 13 13 14 14 14 15 15 15 14 13 13 14 14 11
12 9 7 5 2 3 5 6 8 9 9 9 10 10 11 11 10 12 13 15 15 14 15 15 15 16 15 14 15 16 16 16
12 9 7 4 4 5 7 7 9 9 9 9 9 10 11 12 12 13 14 15 15 15 14 14 15 15 16 16 16 16 18 19
11 7 6 4 4 5 6 8 8 9 10 10 10 10 11 13 14 14 15 15 15 15 14 14 15 15 16 17 16 18 20 20
12 8 5 4 4 5 6 7 8 9 9 10 11 11 11 11 13 13 15 15 15 15 15 15 15 16 16 14 17 19 21 20
12 10 6 4 4 5 5 6 6 7 8 9 11 12 11 11 13 13 14 14 14 15 15 15 15 14 11 17 18 19 20 21
12 11 8 4 3 4 5 6 7 7 7 8 9 11 12 13 13 14 14 14 15 15 15 15 16 11 19 25 23 19 22 20
13 10 7 4 3 5 6 6 6 7 7 8 10 11 12 12 14 14 14 15 15 15 15 16 16 16 23 28 30 19 18 19
12 9 7 4 3 4 3 4 5 6 7 9 10 10 11 12 14 14 14 13 14 14 15 16 16 14 25 30 31 20 18 20
Wind_Direction
156 136 109 100 74 62 36 17 6 349 347 349 344 346 348 338 338 350 339 344 342 334 329 334 329 326 323 325 313 311 302 289
162 146 121 107 68 53 39 21 8 354 359 2 353 351 329 332 334 335 336 343 342 337 338 336 336 328 320 309 309 307 305 306
172 161 137 104 75 50 39 26 15 6 2 351 337 317 311 309 331 327 338 339 343 338 340 332 326 318 311 309 310 306 302 297
178 169 144 118 74 49 35 27 17 23 1 339 329 297 291 324 337 334 342 336 339 339 331 324 320 316 312 309 305 304 306 300
178 171 148 110 68 58 37 25 22 25 6 346 336 326 329 338 325 331 330 338 337 333 328 319 316 313 309 307 304 303 306 290
180 168 140 112 70 44 33 16 23 22 4 352 335 336 330 325 329 330 334 332 332 329 324 318 313 312 310 307 308 303 295 283
171 157 148 128 107 60 29 8 24 15 0 350 344 337 331 331 337 332 337 330 329 326 325 319 318 315 313 309 304 294 287 282
179 166 154 128 84 47 18 11 13 6 356 352 348 339 331 331 332 334 329 329 326 324 323 318 317 313 308 306 300 300 293 289
176 158 152 130 80 37 13 6 355 1 357 353 348 346 341 330 339 331 323 324 323 325 320 316 313 308 308 305 299 298 297 288
167 155 148 138 103 47 12 351 355 1 356 352 349 343 345 341 334 327 328 324 327 325 319 313 310 307 306 303 297 299 297 295
164 161 154 139 78 39 12 356 356 356 353 352 347 343 344 344 333 329 332 329 326 327 320 316 313 310 310 306 303 302 300 295
168 160 150 133 95 31 11 3 358 358 355 351 348 349 340 343 337 330 333 329 329 326 325 320 316 316 314 310 309 306 303 302
167 154 145 118 56 26 11 5 -0 355 353 349 351 347 342 338 338 330 333 331 330 330 326 322 317 318 315 313 313 310 309 305
159 122 121 104 58 32 12 8 357 354 353 349 349 350 344 341 342 333 331 333 333 328 327 322 320 318 315 317 315 314 310 305
165 140 124 93 46 26 23 4 1 358 352 349 352 346 340 341 337 334 330 337 330 328 327 326 322 321 319 322 323 316 312 306
165 149 125 97 56 24 18 2 3 360 357 356 347 339 339 341 341 333 334 335 328 332 331 329 328 326 323 335 325 318 313 305
157 140 124 85 52 23 19 359 358 351 4 356 345 341 344 345 338 337 339 333 338 335 333 333 332 329 328 333 331 320 312 308
152 131 113 95 39 16 7 358 352 2 351 360 356 349 344 344 334 343 341 339 338 338 334 336 335 335 340 335 331 319 315 311
136 122 113 96 53 33 5 4 3 1 358 4 356 352 343 344 342 347 348 337 342 337 334 339 338 337 343 338 333 325 320 319